Marechal Cunha Machado International Airport
SBSL : rendu visible

Aérodrome :











RETROUVEZ-NOUS SUR...

 
LOGIN :

S'inscrire | Disclaimer

   EN    FR    IT 

 









Légende :    VFR   VFR Marginal   IFR   IFR Intensif   IFR Très Intensif
Visi : 
Plafond : 
>= 8 km
>= 3000ft
5 à 8 km
1000 à 3000 ft
1500m à 5 km
500 à 1000 ft
800 à 1500m
200 à 500 ft
< 800m
< 200 ft
Symboles :   Orages  Brouillard  Fortes neiges  Fortes précipitations  Vent > 20 kt






- Altitude de l'aérodrome : 178 ft
- Code IATA : SLZ


SBSL - Marechal Cunha Machado International

DERNIER METAR :
  • 251300Z 05010KT 9999 BKN017 31/24 Q1012

METARs EXPIRÉS :
  • 251200Z 07009KT 9999 BKN017 29/24 Q1012
  • 251100Z 06009KT 9999 BKN017 29/24 Q1012

TAF TAF SBSL
Valide du 25 à 12h jusqu'au 26 à 12h UTC


250920Z 2512/2612 02008KT 9999 SCT030 TX32/2517Z TN25/2608Z
BECMG 2512/2514 06012KT
BECMG 2518/2520 02012KT
BECMG 2601/2603 03005KT
BECMG 2606/2608 03006KT RMK PGW
FIR SBAZ / Amérique du Sud



MET'MAP, la Météo Aéronautique d'un coup d'oeil ! - Copyright ORBIFLY Décembre 2007 - Disclaimer

ORBIFLY MET'MAP TEAM :

Programmation & Développement : Alexandra Zaïnal
Sur une idée originale de : Baudouin d'Aumeries
Assistance à la programmation : Marc-Olivier Méhu
Soutien technique & logistique : Manuel Goepfert

Contact : metmap@orbifly.com




SOURCES & CREDITS :

   NOAA       Earth
Advisory